Location: Góry Miechowskie
(50.3599°N, 20.1803°E)
Time: 08:03:39
(UTC+00:00)

A-11 Canister half - Pass Details

Date: 18 September 2024
Orbit: 1515 x 1684 km, 47.2° (Epoch: 05 October)

Event Time Altitude Azimuth Distance (km) Brightness Sun altitude
Rises 15:15:56 0° 202° (SSW) 4,766 12.1 13.4°
Reaches altitude 10° 15:19:34 10° 192° (SSW) 3,758 11.5 12.8°
Maximum altitude 15:27:14 29° 137° (SE) 2,534 10.0 11.6°
Drops below altitude 10° 15:34:46 10° 83° (E) 3,690 10.4 10.4°
Sets 15:38:16 0° 72° (ENE) 4,666 10.9 9.9°
